• MPC Preparation (Info)

  • MPEC 2007-G33 : 2007 GQ3

    The following Minor Planet Electronic Circular may be linked-to from your own Web pages, but must not otherwise be redistributed electronically.

    A form allowing access to any MPEC is at the bottom of this page.


    Read MPEC 2007-G32 Read MPEC 2007-G34


    M.P.E.C. 2007-G33                                Issued 2007 Apr. 12, 16:03 UT
    
         The Minor Planet Electronic Circulars contain information on unusual
             minor planets and routine data on comets.  They are published
       on behalf of Commission 20 of the International Astronomical Union by the
              Minor Planet Center, Smithsonian Astrophysical Observatory,
                              Cambridge, MA 02138, U.S.A.
    
                 Prepared using the Tamkin Foundation Computer Network
    
                                  MPC@CFA.HARVARD.EDU
              URL http://cfa-www.harvard.edu/iau/mpc.html  ISSN 1523-6714
    
                                       2007 GQ3
    
    Observations:
         K07G03Q* C2007 04 11.23818 12 07 18.16 +29 28 06.2          18.4   EG033704
         K07G03Q  C2007 04 11.24798 12 07 16.28 +29 27 56.1          18.8   EG033704
         K07G03Q  C2007 04 11.25740 12 07 14.69 +29 27 45.2          18.9   EG033704
         K07G03Q  C2007 04 11.26691 12 07 13.11 +29 27 33.8          19.2   EG033704
         K07G03Q  C2007 04 11.27723 12 07 11.35 +29 27 21.0          19.0   EG033704
         K07G03Q  C2007 04 11.86935 12 05 44.61 +29 14 26.2          18.2 R EG033113
         K07G03Q  C2007 04 11.87123 12 05 44.30 +29 14 23.6          18.6 R EG033113
         K07G03Q  C2007 04 11.87260 12 05 44.07 +29 14 27.8          18.5 V EG033595
         K07G03Q  C2007 04 11.87311 12 05 43.98 +29 14 21.0          18.4 R EG033113
         K07G03Q  C2007 04 11.87759412 05 43.47 +29 14 16.5          19.0 R EG033024
         K07G03Q  C2007 04 11.87774 12 05 43.13 +29 14 20.8          18.3 V EG033595
         K07G03Q  C2007 04 11.87950 12 05 42.90 +29 14 15.0                 EG033246
         K07G03Q  C2007 04 11.88010 12 05 42.65 +29 14 14.1                 EG033246
         K07G03Q  C2007 04 11.88063612 05 42.94 +29 14 12.8          18.8 R EG033024
         K07G03Q  C2007 04 11.88074 12 05 42.64 +29 14 13.7                 EG033246
         K07G03Q  C2007 04 11.88363 12 05 42.20 +29 14 12.8          18.7 R EG033473
         K07G03Q  C2007 04 11.88688412 05 41.86 +29 14 04.5          18.7 R EG033024
         K07G03Q  C2007 04 11.89365 12 05 40.42 +29 13 59.5          18.8 R EG033473
         K07G03Q  C2007 04 11.90111 12 05 39.12 +29 13 49.4          18.6 R EG033473
         K07G03Q  C2007 04 11.94244 12 05 32.75 +29 12 48.2                 EG033J95
         K07G03Q  C2007 04 11.94514 12 05 32.29 +29 12 44.5                 EG033J95
         K07G03Q  C2007 04 11.94781 12 05 31.82 +29 12 41.1          18.8 R EG033J95
         K07G03Q  C2007 04 12.15042 12 05 03.13 +29 08 26.7          18.6 R EG033711
         K07G03Q  C2007 04 12.15757 12 05 01.82 +29 08 17.1          18.7 R EG033711
         K07G03Q  C2007 04 12.16474 12 05 00.48 +29 08 08.1          18.6 R EG033711
         K07G03Q  C2007 04 12.18529 12 04 57.23 +29 07 37.2          18.9 V EG033G96
         K07G03Q  C2007 04 12.18583 12 04 57.11 +29 07 36.4          18.2 V EG033G96
         K07G03Q  C2007 04 12.18637 12 04 57.04 +29 07 35.5          19.3 V EG033G96
    
    Observer details:
    024 Heidelberg-Konigstuhl.  Observer F. Hormuth.  0.70-m reflector + CCD.
    113 Volkssternwarte Drebach, Schoenbrunn.  Observer A. Kn/"ofel.  0.5-m f/5
        reflector + CCD.
    246 Klet Observatory-KLENOT.  Observer M. Tichy.  1.06-m KLENOT Telescope
        + CCD.
    473 Remanzacco.  Observers L. Donato, V. Gonano, E. Guido, A. Lepardo,
        V. Santini, G. Sostero.  0.45-m f/4.4 Newtonian reflector + CCD.
    595 Farra d'Isonzo.  Observers L. Bittesini, G. Lombardi, E. Pettarin,
        F. Piani.  Measurers G. Lombardi, E. Pettarin.  0.40-m f/4.5 reflector
        + CCD.
    704 Lincoln Laboratory ETS, New Mexico.  Observers M. Bezpalko, D. Torres,
        R. Kracke, G. Spitz, J. Kistler.  Measurers J. Stuart, S. Scruggs.  1.0-m
        f/2.15 reflector + CCD.
    711 McDonald Observatory.  Observer J. G. Ries.  0.76-m reflector + CCD
        + prime-focus corrector.
    G96 Mt. Lemmon Survey.  Observer R. E. Hill.  Measurers E. C. Beshore,
        E. J. Christensen, G. J. Garradd, A. R. Gibbs, A. D. Grauer, R. E. Hill,
        R. A. Kowalski, S. M. Larson, R. H. McNaught.  1.5-m reflector + CCD.
    J95 Great Shefford.  Observer P. Birtwhistle.  0.40-m f/6.0 Schmidt-Cassegrain
        + CCD.
    
    Orbital elements:
    2007 GQ3                                            PHA, Earth MOID = 0.0204 AU
    Epoch 2007 Apr. 10.0 TT = JDT 2454200.5                 MPC
    M 342.06317              (2000.0)            P               Q
    n   0.41623846     Peri.  209.40793     -0.43873695     +0.89295918
    a   1.7765383      Node    34.84823     -0.78622454     -0.32719941
    e   0.4410322      Incl.   10.14699     -0.43515613     -0.30913499
    P   2.37           H   21.7           G   0.15           U   8
    Residuals in seconds of arc
    070411 704  0.8+  1.9-    070411 595  0.9-  0.0     070411 J95  0.0   0.2-
    070411 704  1.4-  0.2-    070411 246  1.3+  0.1-    070411 J95  0.0   0.0
    070411 704  0.6-  0.4+    070411 246  0.6-  0.2-    070412 711  0.5+  0.3+
    070411 704  0.5+  0.7+    070411 024  0.0   0.3+    070412 711  0.3+  0.1-
    070411 704  1.0+  0.7+    070411 246  0.7+  0.2+    070412 711  0.2-  0.2+
    070411 113  0.1-  0.2+    070411 473  0.3+  0.2-    070412 G96  0.0   0.2-
    070411 113  0.1+  0.0     070411 024  0.1+  0.1+    070412 G96  0.3-  0.3-
    070411 595  0.5-  0.3+    070411 473  0.1+  0.4-    070412 G96  0.1+  0.5-
    070411 113  0.2+  0.1-    070411 473  0.3+  0.6-
    070411 024  0.0   0.1+    070411 J95  0.1-  0.1-
    
    Ephemeris:
    2007 GQ3                 a,e,i = 1.78, 0.44, 10                  q = 0.9930
    Date    TT    R. A. (2000) Decl.     Delta      r     Elong.  Phase     V
    2007 04 10    12 10.22   +29 51.0    0.131    1.104   139.6    36.0    19.0
    2007 04 20    11 38.66   +23 45.9    0.0814   1.061   132.6    44.2    18.1
    2007 04 30    10 23.50   -01 33.1    0.0409   1.027   118.5    59.5    17.0
    2007 05 10    06 06.07   -54 39.5    0.0434   1.004    81.7    95.9    18.3
    2007 05 20    02 49.75   -54 24.7    0.0841   0.994    75.2   100.1    19.9
    2007 05 30    01 58.01   -49 51.2    0.129    0.996    78.6    94.1    20.6
    2007 06 09    01 38.31   -46 47.5    0.173    1.012    84.0    86.2    20.9
    2007 06 19    01 27.64   -44 48.2    0.212    1.039    90.3    77.9    21.1
    2007 06 29    01 18.36   -43 35.7    0.246    1.077    97.6    69.3    21.2
    2007 07 09    01 06.83   -42 58.9    0.275    1.123   105.8    60.6    21.3
    2007 07 19    00 50.46   -42 45.6    0.301    1.176   115.0    51.5    21.3
    2007 07 29    00 28.10   -42 31.5    0.327    1.233   125.1    42.3    21.4
    2007 08 08    00 00.80   -41 49.3    0.358    1.294   135.5    33.4    21.4
    2007 08 18    23 31.69   -40 17.3    0.397    1.356   144.7    25.6    21.5
    2007 08 28    23 05.25   -37 51.0    0.450    1.419   150.6    20.4    21.7
    
    Kyle E. Smalley              (C) Copyright 2007 MPC           M.P.E.C. 2007-G33
    

    Read MPEC 2007-G32 Read MPEC 2007-G34


    MPEC number:

    Enter an MPEC number in one of the following forms:

    • 1997-B01 (the full form)
    • J97B01 (the packed version of the full form)
    • B01 (the abbreviated form)